Regional Weather Roundup
Issued by NWS

Home | Current Version | Previous Version | Graphics & Text | Print | Product List | Glossary On
Versions: 1 2 3 4 5 6 7 8 9 10 11 12 13 14 15 16 17 18 19 20 21 22 23 24 25 26 27 28 29 30 31 32 33 34 35 36 37 38 39 40 41 42 43 44 45 46 47 48 49 50
000
ASUS45 KTFX 190104
RWRMT
MONTANA HOURLY WEATHER ROUNDUP
NATIONAL WEATHER SERVICE GREAT FALLS MT
604 PM MST THU DEC 18 2014

NOTE: "FAIR" INDICATES FEW OR NO CLOUDS BELOW 12000 FEET WITH NO
SIGNIFICANT WEATHER AND/OR OBSTRUCTIONS TO VISIBILITY.

* THESE STATIONS ARE NOT UNDER NWS QUALITY CONTROL. THEY DO NOT
   REPORT WEATHER SUCH AS PRECIPITATION OR FOG.

MTZ001>007-043-190200-
WEST OF THE DIVIDE
CITY           SKY/WX    TMP DP  RH WIND       PRES   REMARKS
KALISPELL      CLOUDY    32  30  92 CALM      29.98F
MISSOULA       CLOUDY    30  27  89 CALM      30.03S
BUTTE          CLOUDY    25  19  78 CALM      30.00S
MULLAN PASS    FOG       30  27  89 S7        29.93S VSB 1 1/4 WCI  23
* ESSEX        N/A       31  30  96 SW1        N/A
* LINCOLN      N/A       30  28  92 W4         N/A
* LOOKOUT PASS N/A       32  32 100 S2         N/A
* POLSON       N/A       34  33  96 SE2        N/A
* RONAN APT    CLOUDY    34  32  92 N/A        N/A
* SEELEY LAKE  N/A       30  29  96 NW2        N/A
* THOMP F APT  CLOUDY    23  20  88 E4G10      N/A
$$

MTZ008-052>055-190200-
SOUTHWEST MONTANA
CITY           SKY/WX    TMP DP  RH WIND       PRES   REMARKS
BOZEMAN        CLOUDY    28  25  89 N5        30.01S WCI  22
DILLON         CLOUDY    30  21  69 S6        30.01S WCI  24
* W YELLOWSTON MOCLDY    25  22  88 SW2        N/A
* THREE FORKS  CLOUDY    28  28 100 N/A        N/A
* BOULDER HILL N/A       29  16  58 SW9        N/A   WCI  21
* MONIDA PASS  N/A       22  22 100 SE13G20    N/A   WCI  10
* RAYNOLDS PAS N/A       25  10  53 S6G11      N/A   WCI  18
* WHITEHALL    N/A       32  22  67 SW6G12     N/A   WCI  26
* WISE RIVER   N/A       22  19  88 N1         N/A
$$

MTZ009>010-012-014-046-048-049-054-190200-
EAST SLOPES AND CENTRAL MONTANA
CITY           SKY/WX    TMP DP  RH WIND       PRES   REMARKS
CUT BANK       CLOUDY    37  28  70 W20       29.86S WCI  27
GREAT FALLS    MOCLDY    36  27  70 SW17G23   29.90S WCI  26
HELENA         CLOUDY    28  23  81 CALM      30.00R
* DEARBORN     N/A       41  25  53 S8         N/A
* EAST GLACIER N/A       34  26  73 W22G29     N/A   WCI  22
* MONARCH      N/A       33  19  56 SW11G18    N/A   WCI  24
* PENDROY      N/A       34  24  67 NW6        N/A   WCI  29
* ROGERS PASS  N/A       30  26  85 SE11G22    N/A   WCI  21
* SWEET GRASS  N/A       37  28  70 SW13G20    N/A   WCI  29
$$

MTZ011-013-016-021-035-040-045-047-050-051-190200-
NORTH CENTRAL MONTANA
CITY           SKY/WX    TMP DP  RH WIND       PRES   REMARKS
HAVRE          PTCLDY    27  25  92 SW6       29.89S WCI  20
LEWISTOWN      PTCLDY    32  25  75 SW14      29.92S WCI  22
* CHESTER      N/A       30  27  89 N/A        N/A
* DENTON       N/A       33  27  79 SW11       N/A   WCI  24
* GEYSER       N/A       33  22  64 NW7        N/A   WCI  27
* JUDITH GAP   N/A       33  22  64 W11        N/A   WCI  24
* LOMA         N/A       37  27  67 SW4        N/A
$$

MTZ017>020-022>027-061-062-190200-
NORTHEAST MONTANA
CITY           SKY/WX    TMP DP  RH WIND       PRES   REMARKS
GLASGOW        PTCLDY    25  21  85 NE5       29.90F WCI  19
GLENDIVE       CLEAR     27  23  85 S8        29.93S WCI  19
JORDAN         MOCLDY    30  27  89 W3        29.91R
SIDNEY         CLEAR     19  19 100 CALM      29.95S
WOLF POINT     CLEAR     23  21  92 CALM      29.93S
* BEAVER HILL  N/A       31  25  78 S9         N/A   WCI  23
* CIRCLE       N/A       33  28  82 N/A        N/A
* LINDSAY DVD  N/A       34  27  76 SW10       N/A   WCI  26
* NAVAJO       N/A       26  25  96 SW2        N/A
* SACO         N/A       21  20  96 NW2        N/A
$$

MTZ028>042-056>058-190200-
SOUTHCENTRAL AND SOUTHEAST MONTANA
CITY           SKY/WX    TMP DP  RH WIND       PRES   REMARKS
BAKER          CLEAR     28  27  96 W5        29.94F WCI  22
BILLINGS       MOCLDY    36  21  54 W20       29.97S WCI  25
LIVINGSTON     CLOUDY    39  19  45 SW17G29   29.98R WCI  30
MILES CITY     PTCLDY    34  23  64 SW7       29.94S WCI  28
* LAUREL APT   PTCLDY    34  16  48 N/A        N/A
* ROUNDUP APT  MOCLDY    43  19  38 SW14G22    N/A
* ALZADA       N/A       29  22  75 W2         N/A
* HYSHAM       N/A       33  20  59 W4         N/A
* LAME DEER    N/A       35  17  48 W9         N/A   WCI  28
* REED POINT   N/A       37  20  50 W2         N/A
* ROSCOE HILL  N/A       37   5  26 SW10G23    N/A   WCI  30
$$

REGIONAL REPORTS...DAKOTAS
CITY           SKY/WX    TMP DP  RH WIND       PRES   REMARKS
WILLISTON      CLOUDY    28  27  96 S5        29.95S WCI  22
DICKINSON      FOG       19  18  96 S6        29.93R VSB M1/4 WCI  11
BEACH          CLEAR     28  28 100 SW10      29.93F WCI  19
CROSBY         CLOUDY    25  25 100 SW3       29.95F
WATFORD CITY   CLOUDY    28  28 100 S5        29.93S WCI  22
BISMARCK       CLOUDY    27  25  92 S8        30.03S WCI  19
GRAND FORKS    CLOUDY    19  16  88 S9        30.16F WCI   8
FARGO          CLOUDY    21  16  81 S13       30.18S WCI   8
BUFFALO SD     PTCLDY    34  25  70 SW7       29.90S WCI  28
RAPID CITY     CLEAR     27  21  78 CALM      30.00R
$$

REGIONAL REPORTS...WYOMING/IDAHO/WASHINGTON
CITY           SKY/WX    TMP DP  RH WIND       PRES   REMARKS
GILLETTE       CLEAR     30  18  61 SW13      29.98S WCI  20
SHERIDAN       CLEAR     27  16  63 NE3       29.97R
CODY           PTCLDY    34  21  59 W10G18    29.99R WCI  26
YELLOWSTONE LA PTCLDY    23  16  74 VRB7      30.08R WCI  15
SALMON         CLOUDY    27  21  78 CALM      30.08R
MULLAN PASS    FOG       30  27  89 S7        29.93S VSB 1 1/4 WCI  23
SAND POINT     CLOUDY    34  34 100 CALM      29.99S
SPOKANE        FOG       37  36  96 NE3       29.96S VSB 1

$$



USA.gov is the U.S. government's official web portal to all federal, state and local government web resources and services.